AirNav   Everest Fuels
 
 1191 users online  

7D8 Gates Airport
Garrettsville, Ohio, USA

GOING TO GARRETTSVILLE?


FAA INFORMATION EFFECTIVE 16 JUNE 2022

Location

FAA Identifier: 7D8
Lat/Long: 41-21-04.1970N 081-05-58.3490W
41-21.069950N 081-05.972483W
41.3511658,-81.0995414
(estimated)
Elevation: 1110 ft. / 338 m (estimated)
Variation: 07W (1985)
From city: 4 miles N of GARRETTSVILLE, OH
Time zone: UTC -4 (UTC -5 during Standard Time)
Zip code: 44231

Airport Operations

Airport use: Open to the public
Activation date: 06/1967
Control tower: no
ARTCC: CLEVELAND CENTER
FSS: CLEVELAND FLIGHT SERVICE STATION
NOTAMs facility: CLE (NOTAM-D service available)
Attendance: APR-NOV IREG
PPR NOV THRU APR CTC AMGR CLEVELANDDZ@YAHOO.COM.
Wind indicator: yes
Segmented circle: no

Airport Communications

CTAF: 122.9
WX AWOS-3 at POV (11 nm SW): 118.675 (330-298-9353)
WX AWOS-2 at 1G3 (19 nm SW): 119.15 (330-346-1497)
WX ASOS at YNG (20 nm E): PHONE 330-856-9357

Airport Services

Runway Information

Runway 8/26

Dimensions: 2800 x 100 ft. / 853 x 30 m
Surface: turf, in fair condition
Runway edge markings: PARTIALLY OBSC BY VEGETATION.
ORANGE CONES.
RUNWAY 8  RUNWAY 26
Latitude: 41-21.021833N41-21.117667N
Longitude: 081-06.271667W081-05.673000W
Elevation: 1110.0 ft.1110.0 ft.
Traffic pattern: leftleft
Runway heading: 085 magnetic, 078 true265 magnetic, 258 true
Runway end identifier lights: nono
Obstructions: 85 ft. tree, 125 ft. right of centerline55 ft. trees, 85 ft. right of centerline

Airport Ownership and Management from official FAA records

Ownership: Privately-owned
Owner: CLEVELAND PARACHUTE CENTER
15199 GROVE RD
GARRETTSVILLE, OH 44231-9541
Phone 216-789-9882
Manager: ROBERT D GATES
8049 FRENCH ST
GARRETTSVILLE, OH 44231-1011
Phone 216-789-9882

Airport Operational Statistics

Aircraft based on the field: 1
Single engine airplanes: 1
    
Aircraft operations: avg 80/week *
95% local general aviation
5% transient general aviation
* for 12-month period ending 14 July 2020

Additional Remarks

SKYDIVING ACTIVITY.
RWY DROPS 10' ON EAST END.
RY 26 HAS 16 FT HILL/BRUSH STARTING 0 FT FM RY APCH END.
FOR CD CTC CLEVELAND APCH AT 216-352-2323

Instrument Procedures

There are no published instrument procedures at 7D8.

Some nearby airports with instrument procedures:

7G8 - Geauga County Airport (6 nm N)
KPOV - Portage County Airport (11 nm SW)
1G3 - Kent State University Airport (19 nm SW)
2G1 - Concord Airpark (19 nm N)
KYNG - Youngstown/Warren Regional Airport (20 nm E)
 
Loc | Ops | Rwys | IFR | FBO | Links
Com | Nav | Svcs | Stats | Notes
Area around 7D8 (Gates Airport)
 
Road maps at: MapQuest Bing Google
 
Aerial photo
WARNING: Photo may not be current or correct
Aerial photo of 7D8 (Gates Airport)
Do you have a better or more recent aerial photo of Gates Airport that you would like to share? If so, please send us your photo.

 
Sectional chart

 
Airport distance calculator
Flying to Gates Airport? Find the distance to fly.

From to 7D8

Sunrise and sunset
Times for 28-Jun-2022
 Local
(UTC-4)
 Zulu
(UTC)
Morning civil twilight05:2109:21
Sunrise05:5409:54
Sunset21:0101:01
Evening civil twilight21:3501:35

Current date and time
Zulu (UTC)  28-Jun-2022 12:53:36
Local (UTC-4)  28-Jun-2022 08:53:36
 
METAR
KPOV 
11nm SW 
281235Z AUTO 00000KT 10SM CLR 16/07 A3026 RMK AO2 T01610073 PWINO
KYNG 
20nm E 
281151Z 33003KT 10SM SCT200 16/11 A3025 RMK AO2 SLP241 T01560106 10156 20094 51012
KCGF 
21nm NW 
281145Z 00000KT 10SM CLR 15/13 A3025
TAF
KYNG 
20nm E 
281125Z 2812/2912 VRB03KT P6SM SCT250
NOTAMs
Click for the latest NOTAMs
NOTAMs are issued by the DoD/FAA and will open in a separate window not controlled by AirNav.

 

 
 

Would you like to see your business listed on this page?

 If your business provides an interesting product or service to pilots, flight crews, aircraft, or users of the Gates Airport, you should consider listing it here.  To start the listing process, click on the button below
 
Add a business
 

Other Pages about Gates Airport

Update a link
 
Copyright © AirNav, LLC. All rights reserved. Privacy Policy  Contact